Wind_Speed
4 5 16 15 16 5 16 7 6 4 1 3 5 5 4 5 4 7 7 7 6 6 2 3 8 11 11 9 10 10 9 9 11 11 12 12 11 9 6 4 5 6 7 8
4 11 7 8 9 4 8 7 6 3 1 2 1 7 1 4 5 6 8 7 7 5 4 5 8 8 7 7 5 6 5 4 4 6 6 2 1 5 7 7 7 8 8 8
9 4 9 10 9 10 9 15 11 4 3 3 2 5 3 2 2 5 5 5 6 7 7 5 11 14 14 14 12 11 9 7 5 4 3 3 4 5 5 8 9 11 9 9
5 4 13 9 13 9 9 4 7 12 7 5 1 4 5 4 5 3 4 7 8 9 6 7 12 15 14 14 13 11 9 8 8 7 5 6 8 8 9 9 10 10 9 11
4 10 14 13 8 11 2 9 8 3 7 5 2 1 1 5 5 5 5 5 7 8 8 7 10 15 14 16 16 15 14 15 15 14 13 13 14 12 10 9 9 10 11 12
4 5 9 5 6 6 11 10 9 6 2 6 7 10 4 4 5 6 6 7 2 8 7 9 14 17 17 17 18 19 18 18 16 16 17 16 15 13 11 11 12 13 12 14
3 3 4 5 10 11 5 10 2 2 2 2 1 7 4 3 2 2 13 11 7 4 9 3 12 18 20 18 17 17 19 20 14 15 16 15 14 13 13 13 13 14 15 17
5 5 8 3 6 5 10 5 4 5 5 2 3 5 2 4 6 7 7 9 11 0 6 1 7 20 21 19 16 16 17 18 13 14 15 14 13 13 13 13 14 14 15 15
4 3 4 1 3 9 4 4 2 5 3 3 3 5 4 5 5 10 9 9 9 7 4 3 8 10 20 19 14 15 16 16 14 14 13 15 14 13 14 14 13 13 13 14
2 2 2 0 6 5 2 5 2 2 4 2 1 3 3 4 8 7 9 10 7 7 7 8 6 13 18 17 15 15 15 15 15 15 14 14 14 12 12 11 12 12 13 15
3 1 2 2 2 7 4 5 4 2 2 3 3 4 2 4 8 13 13 15 17 12 9 7 12 14 16 16 15 15 14 14 14 13 12 12 11 10 10 11 11 13 14 16
2 2 3 0 5 2 4 6 5 3 3 1 1 2 2 2 6 7 8 10 9 10 8 10 16 18 16 15 14 14 13 13 12 11 10 10 9 9 10 13 14 16 18 18
7 3 4 3 3 3 3 5 4 5 3 0 2 3 3 3 5 6 10 10 12 10 9 8 13 14 17 16 14 13 11 11 10 8 7 8 9 10 12 14 16 16 16 17
6 4 1 3 0 5 5 6 6 7 3 5 4 3 2 2 6 6 7 8 8 9 9 7 8 13 16 14 13 11 10 8 7 5 6 8 10 12 13 13 13 14 15 16
4 4 3 4 4 2 2 12 9 9 5 4 6 6 4 4 7 7 7 8 9 8 7 7 8 13 17 15 13 11 9 7 5 4 6 8 9 9 10 10 11 12 14 15
3 3 2 7 8 6 3 5 7 4 5 6 8 4 3 3 5 5 8 11 11 8 8 8 11 15 18 16 13 10 8 5 3 4 6 7 7 8 9 10 11 12 13 14
4 6 4 1 3 5 3 5 5 4 2 7 5 6 7 4 6 5 6 7 7 7 7 9 12 17 19 15 12 9 6 3 2 3 5 6 7 8 10 10 12 12 13 13
6 5 3 3 1 2 4 3 1 4 5 4 6 6 7 5 4 4 1 4 6 5 7 10 17 20 16 13 10 7 5 2 1 2 4 6 7 7 8 9 10 11 13 14
4 5 4 4 2 3 4 3 6 5 6 5 7 7 5 5 4 1 1 1 2 4 10 16 21 19 15 12 8 5 3 1 1 2 4 5 6 7 7 9 10 12 13 14
6 8 4 2 5 5 3 1 1 3 4 7 7 7 7 7 4 3 4 3 7 14 17 20 17 15 12 8 5 4 3 3 2 3 4 5 5 6 7 9 10 11 11 11
3 4 4 2 2 6 5 2 0 6 5 4 7 6 7 4 2 4 6 5 12 14 15 15 14 12 8 6 6 6 6 4 5 5 5 5 5 6 7 8 8 9 9 9
3 4 2 3 4 4 2 3 7 2 2 4 4 4 5 5 6 6 6 6 11 12 12 11 10 9 8 7 7 8 7 7 7 6 5 5 5 5 6 6 5 6 7 9
1 3 4 4 4 1 2 2 2 3 4 4 6 4 7 7 5 7 6 7 12 14 13 12 11 10 11 11 11 10 9 8 7 6 5 5 5 6 5 6 6 6 7 9
1 1 2 3 1 4 4 2 1 1 4 5 4 5 5 4 6 5 4 7 12 15 15 15 15 16 15 13 13 12 10 9 8 6 7 7 6 6 5 5 6 7 8 8
3 2 2 3 5 2 4 5 4 3 4 4 4 3 3 3 3 4 5 10 16 17 17 18 19 19 18 15 15 14 12 10 9 8 8 7 6 5 5 5 6 8 7 7
5 6 4 4 2 3 1 4 5 5 4 5 4 2 3 6 7 7 9 14 16 18 18 20 21 21 18 17 15 15 13 12 10 10 8 7 6 5 6 8 8 5 5 7
Wind_Direction
196 192 194 190 199 214 202 168 177 169 92 157 203 265 207 164 146 162 188 195 183 192 63 123 185 211 217 222 229 235 241 249 251 255 263 270 278 290 299 330 355 357 353 350
167 213 191 151 178 200 221 192 183 62 96 121 260 262 236 173 205 193 189 184 176 144 94 88 118 138 143 137 140 167 183 210 239 244 251 266 56 84 83 65 41 29 18 11
206 166 149 168 172 194 220 220 199 149 130 63 130 284 235 207 153 152 179 155 146 162 136 109 103 106 113 108 109 115 115 111 94 77 92 105 111 104 70 39 39 36 28 25
244 157 169 172 184 177 216 159 169 150 141 201 174 265 220 218 161 107 119 162 145 134 109 111 115 104 105 102 104 102 100 93 79 75 75 87 90 90 61 51 49 45 41 38
205 167 170 174 183 180 207 113 136 123 142 140 203 165 222 171 191 146 110 104 113 120 121 115 108 112 108 111 104 96 92 87 85 89 85 88 88 90 81 70 65 59 50 42
295 250 158 159 134 125 129 90 53 57 81 198 163 177 214 215 182 142 111 90 58 112 101 107 112 108 103 100 101 99 92 80 82 85 86 83 84 82 76 59 51 47 40 35
342 227 91 166 107 139 144 137 86 108 176 192 34 191 224 302 347 154 146 130 98 36 106 300 130 113 104 98 97 98 98 87 79 82 83 79 76 71 65 57 47 42 37 33
199 200 149 204 138 167 153 144 153 162 174 144 351 229 240 184 113 92 91 114 110 138 90 281 137 121 115 104 95 97 94 94 88 81 78 77 76 73 70 61 52 44 38 31
172 172 126 321 110 134 155 151 192 112 40 105 184 256 292 99 101 124 124 117 120 124 97 21 69 91 105 106 114 103 102 99 92 89 87 84 80 74 67 60 48 35 23 14
206 98 33 42 102 48 129 136 102 357 139 126 218 267 236 224 173 166 145 146 156 147 168 144 167 121 107 113 117 107 101 98 98 96 88 82 76 69 58 46 34 17 4 357
206 1 17 55 200 148 126 133 77 97 58 139 128 261 180 223 196 190 186 179 178 185 170 157 142 124 117 113 109 105 105 110 106 97 93 87 73 57 40 27 13 5 359 359
195 101 114 178 297 39 119 159 152 128 203 72 166 250 49 303 170 158 166 165 158 156 154 136 141 129 120 115 113 116 120 114 105 102 96 80 62 38 20 14 10 7 5 4
174 148 125 82 78 18 132 161 135 106 50 264 103 264 35 47 156 164 152 151 148 145 129 137 132 133 136 132 127 120 117 119 117 108 83 60 39 22 15 10 8 6 4 3
124 80 132 129 72 131 146 152 135 95 117 181 202 189 307 125 166 159 141 138 138 152 152 140 133 134 142 137 130 129 123 122 115 92 58 34 21 17 14 12 9 6 6 4
98 103 155 110 51 48 104 155 156 179 184 144 188 156 205 202 163 164 153 140 149 168 150 150 141 140 150 149 148 139 135 135 118 78 44 32 25 16 11 8 10 12 12 14
77 160 102 27 22 76 99 164 140 122 123 80 107 80 135 65 77 107 142 157 176 192 171 156 150 153 159 162 154 151 143 132 100 54 40 28 19 13 13 15 14 12 13 13
117 133 99 98 353 27 4 210 173 131 142 139 156 189 156 138 130 150 152 170 193 204 178 162 160 160 165 163 162 156 148 129 77 43 30 20 13 14 14 12 10 12 12 10
117 90 67 142 300 130 245 281 271 139 154 136 106 134 151 153 115 114 30 173 204 187 152 147 147 156 157 158 160 154 150 135 70 28 5 2 3 7 8 7 4 5 5 6
40 107 74 129 146 291 323 206 159 151 232 199 139 135 127 105 110 279 284 0 126 127 126 142 158 156 158 164 166 169 165 174 302 348 344 345 350 355 356 357 356 360 0 359
50 58 109 132 118 181 249 194 164 88 285 186 172 169 151 146 168 244 143 100 99 125 139 145 151 153 162 170 182 204 218 229 249 293 317 326 329 338 345 345 351 356 354 351
34 22 112 82 113 288 245 168 118 107 243 129 152 153 147 156 174 117 120 99 133 138 145 152 159 170 179 194 211 224 234 242 272 291 294 299 323 334 334 339 344 338 342 347
114 117 144 81 72 281 166 85 172 213 42 102 95 105 112 115 115 134 132 140 149 151 160 170 176 193 203 216 231 237 243 249 259 265 281 308 313 316 318 313 312 327 339 350
86 160 180 172 202 272 254 285 323 146 133 129 118 122 130 131 167 167 175 174 179 179 185 193 207 219 225 228 232 236 241 246 252 266 293 289 279 280 282 301 328 340 347 358
279 202 90 70 260 244 253 250 197 124 123 142 128 131 138 142 157 179 175 189 194 198 203 212 217 226 232 232 234 240 248 249 255 261 253 252 257 265 286 315 326 335 342 357
212 129 131 271 257 339 265 245 192 138 85 104 85 122 165 159 203 199 207 210 213 213 217 221 225 234 241 238 240 237 241 243 241 243 248 254 273 290 301 314 328 333 342 348
190 181 161 214 212 125 248 202 177 168 179 190 178 199 217 205 218 204 225 229 224 223 224 226 233 238 240 237 236 233 237 241 243 246 254 258 267 279 296 314 322 337 327 331
Height
786 789 782 786 790 791 790 803 805 805 806 803 809 804 797 798 801 806 808 811 813 814 817 818 819 822 825 827 830 833 835 837 839 840 842 842 844 845 846 846 846 846 845 845
787 780 782 784 790 795 793 800 807 809 806 804 808 805 798 799 800 800 805 810 813 816 817 820 820 822 824 826 829 832 834 836 838 839 840 842 843 845 846 846 846 846 845 845
779 779 779 785 792 795 794 794 802 807 809 808 808 811 803 797 794 798 802 806 810 816 819 822 823 823 825 826 829 832 834 836 837 839 840 842 843 845 846 847 846 846 847 846
778 771 777 785 787 789 796 792 792 804 809 817 812 821 807 802 800 800 804 805 811 816 820 821 825 825 827 828 830 833 836 836 837 838 840 841 842 844 847 848 848 847 847 846
774 773 778 785 783 786 791 787 794 800 807 813 821 823 799 802 804 805 808 813 815 815 819 824 826 827 829 830 830 834 837 839 839 839 841 843 843 844 847 849 850 849 848 846
780 772 770 775 781 782 790 797 807 810 814 813 812 815 812 811 802 803 808 813 822 816 824 827 829 828 831 833 834 836 839 843 844 844 842 844 846 847 848 850 850 849 848 846
789 774 773 775 786 788 788 792 816 817 819 813 817 818 801 808 801 799 804 810 819 827 822 838 828 829 830 835 837 840 838 842 848 846 844 846 847 848 849 850 851 849 848 846
782 780 772 775 773 781 786 790 802 806 811 822 830 813 802 800 806 805 807 812 816 833 824 839 832 828 830 834 839 840 840 843 848 848 848 848 849 849 850 849 849 850 848 847
780 775 776 778 772 778 793 796 802 812 836 820 819 814 801 805 811 810 813 815 819 830 832 842 836 836 831 834 843 842 842 845 847 848 850 850 851 851 852 850 850 851 851 848
776 775 774 779 775 786 785 795 803 808 813 820 815 812 805 806 808 812 815 818 824 828 834 836 844 839 834 839 845 843 843 847 850 850 851 851 852 853 853 850 851 852 850 848
776 773 783 778 778 781 792 800 805 803 807 810 819 809 799 799 801 805 809 813 820 827 829 837 840 839 840 839 841 843 846 849 851 851 852 853 853 854 853 852 853 851 850 846
775 778 780 787 790 785 782 793 793 800 811 820 811 803 800 802 801 805 809 811 817 823 830 833 838 837 840 843 845 849 851 851 852 853 854 853 853 853 854 853 852 850 847 845
775 782 782 788 792 790 788 792 793 797 806 814 807 806 799 802 804 804 809 812 816 822 828 836 837 839 841 844 847 849 850 852 854 855 854 853 853 852 851 851 850 848 848 846
766 783 784 780 783 784 789 791 790 795 814 813 805 800 798 802 803 805 809 815 820 824 828 832 836 839 843 845 847 851 854 855 854 854 853 853 853 852 852 851 850 849 847 846
765 787 796 802 795 783 785 786 790 791 792 793 793 800 798 800 802 805 809 816 821 825 829 831 835 839 842 846 849 851 853 854 853 852 852 852 852 853 852 852 850 848 847 845
778 795 789 795 793 791 797 789 790 790 795 799 801 801 800 803 803 806 808 813 816 819 824 829 833 838 842 846 849 851 852 853 852 851 851 852 851 852 852 851 850 848 845 845
778 791 803 811 812 785 808 797 790 790 790 795 797 794 801 804 805 806 809 813 815 817 821 826 831 835 840 845 847 848 850 851 851 851 852 852 852 851 850 850 849 847 845 843
778 795 812 816 820 804 794 802 793 785 789 791 793 796 799 803 810 812 814 811 814 816 821 825 830 835 840 843 847 847 848 849 850 850 851 850 850 849 849 848 848 846 844 841
775 790 838 817 856 821 794 793 791 784 792 793 794 799 802 808 811 811 816 815 815 818 821 825 831 835 839 843 844 846 847 847 849 850 850 850 850 848 847 846 846 842 840 841
781 787 797 840 811 821 786 786 787 784 803 793 794 800 805 810 812 811 816 817 819 821 824 828 833 835 839 841 843 845 845 847 848 848 848 848 847 845 844 845 844 842 841 841
810 825 827 860 852 826 799 792 793 809 796 792 796 800 807 806 809 814 817 820 821 823 826 829 832 834 837 839 841 844 845 845 845 846 846 845 844 844 844 843 842 842 840 838
795 810 837 873 852 799 797 797 796 794 797 796 799 801 806 811 814 817 820 822 824 825 828 829 831 834 836 838 840 841 842 842 842 842 842 842 843 843 842 843 842 840 837 837
799 807 815 805 809 801 800 797 795 796 798 799 801 804 808 812 815 817 819 820 821 823 827 829 831 833 835 836 837 838 838 839 839 840 840 840 841 842 841 840 837 837 836 835
804 806 809 804 800 802 799 797 797 796 797 800 802 804 806 808 813 816 818 820 821 823 825 828 829 830 831 832 833 834 836 836 836 837 838 839 839 839 838 837 836 835 835 833
810 808 806 809 797 799 798 799 796 797 799 801 803 805 807 810 812 815 818 819 820 821 823 824 824 826 827 829 829 831 832 833 834 835 836 836 836 835 835 835 834 832 831 830
805 799 804 800 790 791 794 794 796 799 800 803 805 808 809 810 811 812 813 814 816 817 818 819 820 821 822 824 826 827 828 829 830 831 832 832 832 832 832 830 830 830 828 828